Weather in Merenga

Russia / Magadan District     61°53′30″N   156°07′56″E
temp.,
°C
wind,
m/s
gust,
m/s
humid.,
%
clouds,
%
prec.,
mm/h
press.,
hPa
HPBL,
m
13 april, tue
tue1323:00−27nne339995 0.0 102530
02:00−28nne3310079 0.0 102432
05:00−30nne3310073 0.0 102524
08:00−25n349755 0.0 1024119
11:00−21n358957 0.0 1023313
14:00−17n348171 0.0 1021502
17:00−16nne348046 0.0 1021477
20:00−25ne22969 0.0 10249
14 april, wed
wed1423:00−27nne229947 0.0 102610
02:00−29nne2210057 0.0 102611
05:00−29nne229948 0.0 102611
08:00−22n229226 0.0 102466
11:00−17nw11714 0.0 1021211
14:00−14ssw116678 0.0 1019387
17:00−12ssw1174100 0.0 1017323
20:00−16sse1191100 0.0 10189
15 april, thu
thu1523:00−15nne1190100 0.0 101715
02:00−15sse1188100 0.0 101625
05:00−20se229071 0.0 101710
08:00−15s2388100 0.0 1015113
11:00−11s238699 0.1 1012415
14:00−9s3491100 0.3 1011439
17:00−9s2393100 0.8 1009307
20:00−10s2396100 0.8 100991
16 april, fri
fri1623:00−11s1197100 1.3 100912
02:00−12s229782 0.4 100928
05:00
08:00−11s349696 0.1 1011121
11:00−8s468799 0.2 1012676
14:00−7s557576 0.1 1012830
17:00−8sse34836 0.1 1014372
20:00−16se22948 0.0 101810
17 april, sat
sat1723:00−18ese219448 0.0 102010
02:00−18se119261 0.0 102010
05:00−20ne1110059 0.0 10209
08:00−12s239432 0.0 101988
11:00−9s348617 0.0 1018283
14:00−7s44838 0.0 1016340
17:00−8s338551 0.0 1017234
20:00−14sse33905 0.0 102115